Showing default

YAOGAN-43 02A, 60945

Orbit data source: Space-Track

YAOGAN-43 02A, 60945 is a payload satellite owned by PLA GAD (CN) in LEO that was launched on Tue, 03 Sep 2024 UTC via a CHANG ZHENG 4B launch vehicle from the Xichang Space Center, China (XSC). Payload-class satellites include a variety of spacecraft equipped with specific instruments for various scientific and technological missions. These include communications satellites like Starlink; space stations such as the ISS; scientific satellites like the Hubble; Earth observation satellites from companies like Planet Labs, Umbra, and HawkEye 360; GPS; miniature CubeSats for education and research; and military/defense satellites.

Loading next visibility...
Identifier
60945, 2024-156A
Orbit
LEO
Country
Flag of CNCN / PRC
Related business
Manufacturer
SAST
Mission
Operational Defense Communications
Bus & Motor
Unknown
Mass
~300 kg wet, ~300 kg dry
Launch date (UTC)
2024-09-03 (1 year ago)
Launch vehicle
CHANG ZHENG 4B
Launch site
Xichang Space Center, China (XSC)
Object type
Payload
Rocket body
Debris
Shape & HBR
Box + 2 Pan, 2.5 m
Radar Cross Section
11.063 m², Large (>1 m²)

Expand to show TLE details & history
Last TLE update: 5 hours ago

TLE from 5 hours ago
0 YAOGAN-43 02A
1 60945U 24156A   25261.01076323  .00019846  00000-0  69951-3 0  9991
2 60945  34.9969 105.9704 0003326 270.2197  89.8138 15.28390940 58016
Epoch: 2025-09-18T00:15Z
TLE epoch observation values (Epoch: 2025-09-18T00:15:29.943Z)
Latitude
-0.00001°
Longitude
104.91713°
Altitude
479.519 km
Speed
7.628 km/s
True Right ascension
07h 03m 52s
True Declination
0° 00' 00"
Sunlit
Object was in daylight at epoch
Visualization orbit readout
Latitude
Unknown
Longitude
Unknown
Altitude
Unknown
Speed
Unknown
Apparent Right ascension
Unknown
Apparent Declination
Unknown
Sunlit
N/A
Visualization observer readout
Local Sidereal Time
21:36:22
Azimuth
Unknown
Elevation
Unknown
Doppler factor
Unknown
Orbital elements
Apogee altitude
486.163 km
Perigee altitude
481.598 km
Semi-major axis
6,862.017 km
Eccentricity
0.00033
Inclination
34.9969°
RAAN
105.9704°
Arg. of periapsis
270.2197°
True anomaly
89.85191°
Mean anomaly
89.8138°
Eccentric anomaly
89.83286°
Mean motion
3.81826 °/min
Orbital period
94.28 mins
BSTAR
0.00069951
Loading maneuver chart data...
Computing Atmospheric mass density...
Loading historical data...
Loading historical data...
Loading historical data...
Loading historical data...
Loading historical data...
Loading historical data...
Loading historical data...

Documentation

Showing up to 5 results
|